Погода Ремонтное

Погода Ремонтное : погода сейчас, прогноз погоды и архив. Всё, что Вы хотите узнать о погоде Ремонтное!

Поиск расширенной информации на нашем сайте:

Другие новости

Новости СМИ2

Главная страница сайта

Новости сайта

02.10.2013

Напоминаем, что на нашем новом сайте вы можете получить высокодетализированные прогнозы погоды по пунктам России, СНГ и мира (включающие важные для авиации метеовеличины, такие как направление и скорость ветра, видимость, явления погоды, количество и форма облачности, нижняя и верхняя граница облачности), а также ознакомиться с разнообразными материалами по авиационной метеорологии и подборкой полезных ссылок на эту тему.

Сайт Метеоцентр.Азия посвящён разработке технологий оптимизации авиаметеорологического обслуживания, включая проектирование и перспективное создание нескольких автоматизированных авиаметеорологических систем:
- система выпуска высокодетальных прогностических карт явлений погоды для нижнего воздушного пространства по России и ближнему зарубежью;
- система верификации прогнозов TAF (выпускаемых синоптиками официальных АМСГ РФ и ближнего зарубежья) и AUTOTAF (выпускаемых сайтом Метеоцентр.Азия) - выявление ошибок, онлайн-сопоставление с фактической погодой METAR, автоматическое внесение коррективов в прогнозы при резком отклонении фактической погоды от прогноза, подсчёт оправдываемости прогнозов по элементам и в целом;
- система обработки, анализа и отображения авиаметеорологической информации для применения провайдерами метеорологической информации.


Погода Ремонтное - сегодня

Время (UTC), дата Ветер
(°,м/с) 
Видим.   Явления Облачность Т
(°С)
Тd
(°С)
f(%) Тe
(°С)
Pmin
(гПа)
dP
(гПа)
Po
(мм)
O2
(г/м3)
Тmin Tmax R s Состояние
почвы
09 25.06.17 050 (СВ) 10 км    4/0 средняя, верхняя 
[Ac trans|Ci fib]
+20.1 +11.4 57 +23  1014.2  1.6  751  280           
12 25.06.17 040 (СВ) 20000 м    3/3 600 м 
[Cu hum]
+22.7 +7.9 39 +23  1014.5  0.4  752  278           
15 25.06.17 330 (СЗ) 20000 м    3/3 600 м 
[Cu hum]
+23.8 +7.4 35 +24  1015.4  0.9  752  278    +24.3  0.5     
18 25.06.17 130 (ЮВ) 10 км    1/1 600 м 
[Sc diur, vesp]
+17.8 +11 64 +21  1016.7  1.1  753  283           
21 25.06.17 140 (ЮВ) 10 км    10/10 600 м 
[Sc]
+16.6 +12.1 75 +22  1017.6  0.8  754  284           
00 26.06.17 190 (Ю) 10 км    10/10 600 м 
[Sc]
+17.7 +8.9 56 +19  1017.4  -0.1  754  284           
03 26.06.17 170 (Ю) 20000 м    6/3 600 м средняя, верхняя 
[Sc|Ac trans|Ci fib]
+19 +10.3 57 +22  1017.3  -0.1  754  282  +15.6        сухая 
06 26.06.17 190 (Ю) 20000 м    1/0 средняя 
[Ac trans]
+24.5 +11.4 44 +27  1017.3  0.2  754  277           
09 26.06.17 180 (Ю) 20000 м    8/8 600 м 
[Cu med, cong]
+27.7 +11.6 37 +31  1016.6  -0.5  753  273           
12 26.06.17 140 (ЮВ) 10 км    6/6 600 м 
[Cu med, cong]
+29.6 +11 32 +32  1015.5  -1  753  272           
15 26.06.17 130 (ЮВ) 10 км    3/3 600 м 
[Cu med, cong]
+29.3 +10.8 32 +31  1014.7  -0.9  752  272    +30.5       
18 26.06.17 130 (ЮВ) 10 км    1/1 600 м 
[Sc diur, vesp]
+22.3 +15.1 64 +31  1015  0.1  752  277           
21 26.06.17 170 (Ю) 20000 м    ясно 
+21.4 +7.8 42 +21  1015.1  752  280           
00 27.06.17 140 (ЮВ) 10 км    ясно 
+17.7 +10.4 62 +21  1015.4  0.2  752  283           
03 27.06.17 140 (ЮВ) 10 км    ясно 
+18.6 +12.7 69 +25  1015.7  0.3  752  281  +16.2        сухая 
06 27.06.17 160 (Ю) 20000 м    ясно 
+24.6 +12.7 47 +29  1014.8  -0.6  752  276           
09 27.06.17 150 (ЮВ) 20000 м    3/0 верхняя 
[Ci fib]
+28.7 +9.9 31 +30  1013.4  -1.3  751  272           
12 27.06.17 150 (ЮВ) 20000 м    9/0 верхняя 
[Ci fib]
+31.4 +8.7 24 +31  1011.5  -1.8  750  269           
15 27.06.17 090 (В) 20000 м    8/0 верхняя 
[Ci fib]
+30.5 +10.2 28 +32  1010.5  -1  749  270      269    замёрзшая 
18 27.06.17 090 (В) 10 км    4/0 верхняя 
[Ci fib]
+24.5 +12.8 48 +30  1011.4  0.7  749  275           
21 27.06.17 120 (ЮВ) 10 км    ясно 
+19.8 +13.5 67 +27  1011.7  0.1  749  279           
00 28.06.17 160 (Ю) н/о    н/о 
+18.5 +14 75 +26  1011.3  -0.4  749  280           
03 28.06.17 110 (В) 10 км    1/0 средняя 
[Ac trans]
+20.2 +15.5 74 +30  1011.9  0.7  750  278  +16.9        сухая 
06 28.06.17 100 (В) 10 км    1/0 верхняя 
[Ci fib]
+27.9 +17.3 53 +41  1011.4  -0.2  750  270           
09 28.06.17 110 (В) 20000 м    1/1 600 м 
[Cu hum]
+31.6 +13.1 32 +37  1010.8  -0.5  749  268           
Время (UTC), дата Ветер
(°,м/с) 
Видим.   Явления Облачность Т
(°С)
Тd
(°С)
f(%) Тe
(°С)
Pmin
(гПа)
dP
(гПа)
Po
(мм)
O2
(г/м3)
Тmin Tmax R s Состояние
почвы

Для получения пояснительной информации подведите курсор к названию столбца.

ПОГОДА Ремонтное - архив

Всё, что Вы хотите узнать о погоде Ремонтное - удобно и подробно!

Выберите нужную дату (начиная с 1 января 2015* года) и нажмите кнопку "Найти".
Будут отображены архивные сводки погоды по пункту Ремонтное, начиная с указанной даты.


Отображать данные в формате CSV (для использования в таблицах Excel)


Внимание! Наш архив погоды предназначен исключительно для личного некоммерческого использования в познавательных целях. Если Вам необходимы официальные справки о состоянии погоды (для производственных, юридических, коммерческих и т.п. целей), обращайтесь в органы Росгидромета.

*Примечание: данная дата относится к архиву по метеостанциям СССР (Россия, СНГ, Балтия).
Архив по метеостанциям Зарубежной Европы и Азии (кроме Китая) хранится 10 дней, по другим регионам земного шара (Китай, Африка, Америка, Австралия, Океания) - 1 день.

Ремонтное - район местоположения метеостанции


Название, широта, долгота, высота метеостанции:
Ремонтное 46.6°ш. 43.7°д. 106 м над ур. моря [Российская Федерация]

Дополнительная информация

В oтличие oт бoльшинства пoгoдных сайтoв мы публикуем пoдрoбную метеoинфoрмацию в детальнoм прoфессиoнальнoм фoрмате.

Характеристики температуры и влажнoсти вoздуха измеряются на высoте 2 м в тени вдали oт зданий и деревьев.
Скoрoсть ветра измеряется на высoте 10 м (на урoвне рoста челoвека скoрoсть ветра ниже в 1.5-2 раза). Если метеoстанция нахoдится в гoрoде или в лесу, тo скoрoсть ветра занижена на 2-4 м/с пo сравнению с oткрытым местoм. Скoрoсть ветра над акватoриями крупных рек и oзёр, а также на вершинах хoлмoв на 2-5 м/с выше, чем в oбычных услoвиях.
Атмoсфернoе давление в разных тoчках местнoсти мoжет значительнo oтличаться oт давления на метеoстанции, в зависимoсти oт услoвий рельефа (при пoдъёме на 10 м давление пoнижается примернo на 1 мм рт.ст.).